Flag for U.S.A. Weather past 2 weeks in Avalon (Santa Catalina Island), California, U.S.A.

Now
49 °F

Mostly cloudy.


Feels Like: 45 °F
Forecast: 52 / 60 °F
Wind: 8 mph from South

Location: Catalina Airport

Current Time: Mar 2, 2015 at 1:03:38 PM

Latest Report: Mar 2, 2015 at 11:51 AM


Visibility: 10 mi

Pressure: 29.94 "Hg

Humidity: 86%

Dew point: 45 °F

Location of Avalon (Santa Catalina Island)Location

Historic Weather in Avalon (Santa Catalina Island) — Graph

°F

Avalon (Santa Catalina Island) temperature yesterday

Maximum temperature yesterday: 53 °F (at 12:51 PM)
Minimum temperature yesterday: 46 °F (at 7:51 PM)
Average temperature yesterday: 48 °F

Past Weeks' High & Low Weather Summary

 TemperatureHumidityPressure
High72 °F (Feb 15, 11:51 AM)100% (Feb 16, 6:51 PM)30.26 "Hg (Feb 16, 6:51 PM)
Low45 °F (Mar 2, 2:51 AM)25% (Feb 15, 11:51 AM)29.78 "Hg (Feb 27, 4:51 PM)
Average53 °F80%29.98 "Hg
* Reported Feb 15 11:51 AM — Mar 2 11:51 AM, Avalon (Santa Catalina Island), Weather by CustomWeather, © 2015

Note: Actual official high and low records may vary slightly from our data, if they occured in-between our weather recording intervals... More about our weather records

Advertising

Avalon (Santa Catalina Island) weather history for previous 24 hours

 ConditionsComfort  
Time TempWeatherWind HumidityBarometerVisibility
11:51 AM
Mon, Mar 2
49 °FMostly cloudy.8 mph86%29.94 "Hg10 mi
10:51 AM48 °FPassing clouds.6 mph83%29.94 "Hg10 mi
9:51 AM46 °FLow clouds.14 mph93%29.93 "Hg10 mi
8:51 AM48 °FMostly cloudy.8 mph83%29.92 "Hg10 mi
7:51 AM49 °FBroken clouds.9 mph84%29.90 "Hg10 mi
6:51 AM46 °FSunny.8 mph93%29.90 "Hg10 mi
5:51 AM45 °FClear.5 mph97%29.90 "Hg10 mi
4:51 AM45 °FClear.6 mph86%29.89 "Hg10 mi
3:51 AM46 °FClear.5 mph77%29.89 "Hg10 mi
2:51 AM45 °FClear.5 mph90%29.90 "Hg10 mi
1:51 AM46 °FPassing clouds.6 mph86%29.90 "Hg10 mi
12:51 AM46 °FPassing clouds.8 mph83%29.92 "Hg10 mi
11:51 PM
Sun, Mar 1
46 °FLight rain. Partly cloudy.6 mph93%29.94 "Hg10 mi
10:51 PM48 °FLight rain. Mostly cloudy.3 mph89%29.94 "Hg10 mi
9:51 PM48 °FClear.No wind86%29.94 "Hg10 mi
8:51 PM47 °FClear.No wind93%29.95 "Hg10 mi
7:51 PM46 °FClear.6 mph100%29.94 "Hg10 mi
6:51 PM47 °FPassing clouds.7 mph97%29.93 "Hg10 mi
5:51 PM48 °FPassing clouds.8 mph96%29.92 "Hg10 mi
4:51 PM49 °FPassing clouds.10 mph93%29.90 "Hg10 mi
3:51 PM49 °FBroken clouds.12 mph93%29.90 "Hg10 mi
2:51 PM51 °FPassing clouds.8 mph83%29.90 "Hg10 mi
1:51 PM51 °FPassing clouds.12 mph83%29.90 "Hg10 mi
Weather by CustomWeather, © 2015

See weather overviewHow to use our weather pages